This demonstration page uses our WeatherBlox Daily Observations layout. Learn more.

Left ArrowRight Arrow

38.80484, -77.04692

Hourly Observations for February 1, 2017

Temp ( °F °C ) Dew Point ( °F °C ) Humidity (%) Winds ( mph kmh ) Pressure ( in mb ) Visibility ( mi km ) Precip ( " mm )
12:52 am 00:52 Mostly Clear 38 3.3 31 -0.6 76 76 Calm 29.93 1013 10 16 0.00 0.00
1:52 am 01:52 Mostly Clear 37 2.8 31 -0.6 79 79 SSW 5 7 29.93 1014 10 16 0.00 0.00
2:52 am 02:52 Mostly Clear 35 1.7 32 0 89 89 NNW 5 7 29.95 1014 10 16 0.00 0.00
3:52 am 03:52 Mostly Cloudy 34 1.1 31 -0.6 89 89 SW 7 11 29.97 1015 10 16 0.00 0.00
4:52 am 04:52 Mostly Cloudy 38 3.3 31 -0.6 76 76 NNW 5 7 29.98 1015 10 16 0.00 0.00
5:52 am 05:52 Mostly Cloudy 36 2.2 30 -1.1 79 79 SW 5 7 29.99 1016 10 16 0.00 0.00
6:52 am 06:52 Mostly Cloudy 38 3.3 35 1.7 89 89 ENE 3 6 29.99 1016 10 16 0.00 0.00
7:52 am 07:52 Mostly Cloudy 38 3.3 34 1.1 86 86 S 6 9 30.01 1016 10 16 0.00 0.00
8:52 am 08:52 Mostly Cloudy 41 5 36 2.2 82 82 SSE 6 9 30.01 1016 10 16 0.00 0.00
9:52 am 09:52 Mostly Cloudy 41 5 34 1.1 76 76 S 7 11 30.03 1017 10 16 0.00 0.00
10:52 am 10:52 Cloudy 42 5.6 34 1.1 73 73 S 5 7 30.04 1017 10 16 0.00 0.00
11:52 am 11:52 Cloudy 43 6.1 32 0 65 65 S 6 9 30.01 1016 10 16 0.00 0.00
12:52 pm 12:52 Cloudy 44 6.7 33 0.6 65 65 SSE 7 11 29.99 1016 10 16 0.00 0.00
1:52 pm 13:52 Cloudy 45 7.2 31 -0.6 58 58 Calm 29.98 1015 10 16 0.00 0.00
2:52 pm 14:52 Cloudy 47 8.3 30 -1.1 52 52 Calm 29.98 1015 10 16 0.00 0.00
3:52 pm 15:52 Mostly Cloudy 49 9.4 27 -2.8 43 43 Calm 29.99 1016 10 16 0.00 0.00
4:52 pm 16:52 Mostly Cloudy 50 10 27 -2.8 41 41 NNW 6 9 30.01 1016 10 16 0.00 0.00
5:52 pm 17:52 Cloudy 51 10.6 28 -2.2 41 41 W 3 6 30.05 1018 10 16 0.00 0.00
6:52 pm 18:52 Cloudy 50 10 31 -0.6 48 48 NW 7 11 30.06 1018 10 16 0.00 0.00
7:52 pm 19:52 Cloudy 50 10 31 -0.6 48 48 WNW 7 11 30.07 1018 10 16 0.00 0.00
8:52 pm 20:52 Cloudy 48 8.9 32 0 54 54 NNW 12 19 30.09 1019 10 16 0.00 0.00
9:52 pm 21:52 Cloudy 46 7.8 31 -0.6 56 56 N 9 15 30.08 1019 10 16 0.00 0.00
10:52 pm 22:52 Cloudy 46 7.8 31 -0.6 56 56 N 9 15 30.07 1018 10 16 0.00 0.00
11:52 pm 23:52 Cloudy 45 7.2 31 -0.6 58 58 N 10 17 30.08 1019 10 16 0.00 0.00

Powered by AerisWeather